Flock 4g-3

operational
NORAD ID: 62639 Int'l Des: 2025-009 Owner: PLAN Country: US Constellation: planet
LEOCIRCULARRETROGRADESSO

About Flock 4g-3

Description loading...

Live Position

Loading 3D Globe...

Upcoming Passes

Altitude History

Altitude vs Time

uPlot chart will show altitude changes over time

Two-Line Element Set

1 62639U 25009AG 26062.18359245 .00012760 00000-0 48394-3 0 9992
2 62639 97.4085 144.8374 0001580 337.8092 22.3078 15.26998314 62714
Epoch: Mar 3, 2026 • Age: 12 hours

Current Status

Altitude 501.3 km
Velocity 7.61 km/s
Sub-Earth Point -45.35°S, 170.34°E
Launch Date Jan 14, 2025
Age 1.1 years
Type earth observation

Technical Details

Classification Payload
Mass 5.70 kg
Dry Mass 5.70 kg
Total Mass 5.70 kg
Length 0.30 m
Diameter 0.10 m
Span 0.30 m
Shape Box+2 pan
Manufacturer PLAN
Bus Type Cubesat 3U
Phase Status In Orbit
Owner/State PLAN/US

Large Constellations

Loading constellations...